Regional Weather Roundup
Issued by NWS

Home | Current Version | Previous Version | Text Only | Print | Product List | Glossary Off
Versions: 1 2 3 4 5 6 7 8 9 10 11 12 13 14 15 16 17 18 19 20 21 22 23 24 25 26 27 28 29 30 31 32 33 34 35 36 37 38 39 40 41 42 43 44 45 46 47 48 49 50

000
ASUS45 KBOU 271207
RWRCO

WEATHER ROUNDUP FOR COLORADO
NATIONAL WEATHER SERVICE DENVER/BOULDER CO
500 AM MST TUE JAN 27 2015

NOTE: "FAIR" INDICATES FEW OR NO CLOUDS BELOW 12000 FEET WITH NO
SIGNIFICANT WEATHER AND/OR OBSTRUCTIONS TO VISIBILITY.

COZ001>005-013-030-031-271300-
...NORTHWEST COLORADO...

CITY           SKY/WX    TMP DP  RH WIND       PRES   REMARKS
CRAIG          NOT AVBL
HAYDEN         PTCLDY    27  16  63 SE14      30.32F WCI  15
MEEKER         PTCLDY    16  12  84 CALM      30.31F
MOUNT WERNER   NOT AVBL
STEAMBOAT SPGS PTCLDY    19  17  93 CALM      30.35S
WALDEN         PTCLDY    18  12  79 SE6       30.37S WCI   9
$$

COZ006>008-011-271300-
...WEST CENTRAL VALLEYS...

CITY           SKY/WX    TMP DP  RH WIND       PRES   REMARKS
GRAND JUNCTION PTCLDY    28  24  85 E7        30.29S WCI  21
MONTROSE       PTCLDY    28  22  78 S5        30.33F WCI  23
EAGLE          PTCLDY    18  16  93 E5        30.44S WCI  11
RIFLE          PTCLDY    26  22  84 CALM      30.34F
DELTA          PTCLDY    31  24  76 CALM      30.32F
NUCLA          PTCLDY    32  27  80 CALM      30.34F
$$

COZ017>023-064>068-271300-
...SOUTHWEST COLORADO...

CITY           SKY/WX    TMP DP  RH WIND       PRES   REMARKS
DURANGO        PTCLDY    28  24  85 CALM      30.34F
CORTEZ         CLEAR     26  21  81 NE9       30.31F WCI  17
PAGOSA SPRINGS PTCLDY    26  24  91 CALM      30.39S
TELLURIDE      MOCLDY    36  17  47 CALM      30.41S
WOLF CREEK PAS NOT AVBL
$$

COZ009-010-012-014-032>034-037-058>063-271300-
...CENTRAL COLORADO...

CITY           SKY/WX    TMP DP  RH WIND       PRES   REMARKS
ASPEN          CLEAR     22  14  71 S7        30.36F WCI  13
BUENA VISTA    PTCLDY    27  18  67 NW5       30.38F WCI  22
COPPER MTN     PTCLDY    37   3  23 S13       30.51S
BERTHOUD PASS  FAIR      30  27  86 W17       30.53F WCI  18
COTTONWOOD PAS PTCLDY    43  10  26 CALM      30.42F
GUNNISON       MOCLDY     1  -6  71 CALM      30.48F
KREMMLING      FOG      N/A N/A N/A CALM      30.46S VSB 1/2
LEADVILLE      PTCLDY    20   9  62 NE3       30.42F
MONARCH PASS   PTCLDY    32  12  43 SW25      30.60F WCI  19
SALIDA         PTCLDY    32  19  59 NW8       30.45S WCI  25
SUNLIGHT       PTCLDY    37  16  41 CALM      30.42
WILKERSON PASS MOCLDY    32  12  43 SW9       30.48F WCI  24
$$

COZ069>075-271300-
...SAN LUIS VALLEY/SANGRE DE CRISTO MOUNTAINS...

CITY           SKY/WX    TMP DP  RH WIND       PRES   REMARKS
ALAMOSA        MOCLDY     9   5  84 CALM      30.41F
LA VETA PASS   NOT AVBL
SAGUACHE       PTCLDY    23  18  80 NW10      30.41S WCI  12
$$

COZ035-036-038>040-271300-
...NORTHERN COLORADO FRONT RANGE...

CITY           SKY/WX    TMP DP  RH WIND       PRES   REMARKS
DENVER INTL AP CLEAR     47  23  38 SW18      30.16S
DMNS CITY PARK   N/A     48  19  30 S6G16     30.15F
AURORA         CLEAR     44  22  41 S14       30.18S
FRONT RANGE AP NOT AVBL
ERIE MUNI ARPT CLEAR     37  23  56 S5        30.14F
BOULDER MUN AP CLEAR     50  18  27 NW3       30.13F
CENTENNIAL     CLEAR     48  20  32 S14       30.18F
BROOMFIELD     CLEAR     48  18  29 SW5       30.17S
FORT COLLINS   PTCLDY    37  21  52 E8        30.14F
LONGMONT       PTCLDY    34  24  64 CALM      30.15F
$$

COZ041-046-047-076>085-087-088-271300-
...PIKES PEAK/PALMER DIVIDE AND SOUTHERN FOOTHILLS...

CITY           SKY/WX    TMP DP  RH WIND       PRES   REMARKS
COLO. SPRINGS  PTCLDY    38  23  55 N10       30.24F
A. F. ACADEMY  CLEAR     33  22  64 N8        30.24F WCI  25
ELLICOTT       PTCLDY   N/A N/A N/A CALM      30.22F
FALCON         PTCLDY    35  20  55 NW7       30.27S WCI  29
FORT CARSON    PTCLDY    39  23  52 N13       30.20F
LIMON          PTCLDY    34  24  67 N9        30.18S WCI  27
MONUMENT HILL  CLEAR     45  18  33 SW10      30.26F
TRINIDAD       PTCLDY    40  23  50 W14       30.24F
$$

COZ042>045-048>051-090-091-271300-
...NORTHEAST COLORADO...

CITY           SKY/WX    TMP DP  RH WIND       PRES   REMARKS
GREELEY ARPT   PTCLDY    28  19  69 W3        30.13S
AKRON          CLEAR     42  28  57 SW15      30.11F
BURLINGTON     PTCLDY    41  27  57 W10       30.12F
WRAY           PTCLDY    34  30  83 W9        30.09S WCI  27
STERLING       CLEAR     34  32  93 S7        30.10S WCI  28
HOLYOKE        PTCLDY    41  30  65 W15       30.07F
FORT MORGAN    CLEAR     32  27  81 W8        30.13S WCI  24
$$

COZ086-089-092>099-271300-
...SOUTHEAST COLORADO...

CITY           SKY/WX    TMP DP  RH WIND       PRES   REMARKS
PUEBLO         PTCLDY    30  25  81 W7        30.19F WCI  23
LA JUNTA       CLEAR     37  28  70 CALM      30.17F
LAMAR          CLEAR     34  30  85 SW8       30.15F WCI  27
SPRINGFIELD      N/A     40  26  57 VRB6      30.18S
$$


USA.gov is the U.S. government's official web portal to all federal, state and local government web resources and services.